Flag for Canada Weather past 2 weeks in Coquitlam, British Columbia, Canada

Now
62 °F

Cool.


Feels Like: 62 °F
Forecast: 56 / 65 °F
Wind: 1 mph from Southeast

Location: P. Meadows Coastal Station

Current Time: Aug 30, 2014 at 9:36:05 AM

Latest Report: Aug 30, 2014 at 9:00 AM


Visibility: N/A

Pressure: 29.90 "Hg

Humidity: 77%

Dew point: 54 °F

Location of CoquitlamLocation

Historic Weather in Coquitlam — Graph

°F

Coquitlam temperature yesterday

Maximum temperature yesterday: 69 °F (at 3:00 PM)
Minimum temperature yesterday: 60 °F (at 11:00 PM)
Average temperature yesterday: 64 °F

Past Weeks' High & Low Weather Summary

 TemperatureHumidityPressure
High84 °F (Aug 26, 5:00 PM)100% (Aug 17, 1:00 AM)30.15 "Hg (Aug 17, 1:00 AM)
Low53 °F (Aug 22, 3:00 AM)32% (Aug 23, 6:00 PM)29.75 "Hg (Aug 19, 7:00 PM)
Average67 °F74%29.99 "Hg
* Reported Aug 15 8:00 AM — Aug 30 8:00 AM, Coquitlam, Weather by CustomWeather, © 2014

Note: Actual official high and low records may vary slightly from our data, if they occured in-between our weather recording intervals... More about our weather records

Advertising

Coquitlam weather history for previous 24 hours

 ConditionsComfort  
Time TempWeatherWind HumidityBarometerVisibility
8:00 AM
Aug 30
61 °FCool.3 mph84%29.90 "HgN/A
7:00 AM56 °FCool.No wind94%29.90 "HgN/A
6:00 AM56 °FCool.1 mph91%29.90 "HgN/A
5:00 AM58 °FCool.1 mph90%29.90 "HgN/A
4:00 AM58 °FCool.3 mph91%29.90 "HgN/A
3:00 AM59 °FCool.1 mph90%29.92 "HgN/A
2:00 AM59 °FCool.No wind90%29.92 "HgN/A
1:00 AM59 °FCool.2 mph90%29.92 "HgN/A
12:00 AM60 °FCool.3 mph88%29.93 "HgN/A
11:00 PM
Aug 29
60 °FCool.3 mph86%29.93 "HgN/A
10:00 PM60 °FCool.5 mph84%29.94 "HgN/A
9:00 PM62 °FMild.3 mph79%29.95 "HgN/A
8:00 PM62 °FMild.2 mph77%29.94 "HgN/A
7:00 PM62 °FCool.5 mph79%29.95 "HgN/A
6:00 PM63 °FMild.2 mph79%29.96 "HgN/A
5:00 PM67 °FMild.3 mph56%29.96 "HgN/A
4:00 PM67 °FMild.5 mph55%29.96 "HgN/A
3:00 PM69 °FMild.6 mph48%29.96 "HgN/A
2:00 PM68 °FMild.5 mph51%29.97 "HgN/A
12:00 PM64 °FMild.1 mph61%29.97 "HgN/A
11:00 AM64 °FMild.5 mph62%29.96 "HgN/A
10:00 AM63 °FMild.6 mph69%29.95 "HgN/A
9:00 AM62 °FCool.3 mph73%29.96 "HgN/A
Weather by CustomWeather, © 2014

See weather overviewHow to use our weather pages